#timestamp,LO_Frequency,Hit 
1499284815.2,286047084.8,N
1499284835.0,286047085.2,N
1499284835.9,286047085.2,N
1499284855.7,286047087.4,N
1499284875.6,286047088.1,N
1499284895.4,286047089.0,N
1499284915.2,286047088.4,N
1499284935.1,286047089.2,N
1499284936.0,286047089.2,N
1499284955.8,286047087.3,N
1499284975.6,286047086.8,N
1499284995.5,286047088.8,N
1499285015.3,286047088.9,N
1499285035.1,286047090.7,N
1499285055.9,286047090.1,N
1499285075.7,286047087.8,N
1499285095.5,286047088.0,N
1499285115.4,286047090.5,N
1499285135.2,286047090.6,N
1499285155.0,286047090.3,N
1499285155.9,286047090.3,N
1499285175.8,286047090.6,N
1499285195.6,286047089.6,N
1499285215.4,286047090.1,N
1499285235.3,286047089.4,N
1499285255.1,286047089.8,N
1499285256.0,286047089.8,N
1499285275.8,286047089.5,N
1499285295.6,286047090.1,N
1499285315.5,286047090.0,N
1499285335.3,286047091.7,N
1499285355.1,286047091.2,N
1499285375.9,286047091.6,N
1499285395.7,286047091.5,N
1499285415.5,286047091.6,N
1499285435.4,286047093.9,N
1499285455.2,286047091.2,N
1499285475.0,286047092.6,N
1499285475.9,286047092.6,N
1499285495.8,286047093.1,N
1499285515.6,286047093.6,N
1499285535.4,286047092.9,N
1499285555.3,286047095.6,N
1499285575.1,286047095.6,N
1499285595.8,286047092.5,N
1499285615.7,286047093.7,N
1499285635.5,286047091.3,N
1499285655.3,286047093.7,N
1499285675.2,286047095.0,N
1499285695.9,286047097.1,N
1499285715.7,286047094.4,N
1499285735.6,286047095.5,N
1499285755.4,286047094.7,N
1499285775.2,286047094.4,N
1499285795.1,286047096.2,N
1499285796.0,286047096.2,N
1499285815.8,286047096.9,N
1499285835.6,286047097.2,N
1499285855.5,286047096.8,N
1499285875.3,286047096.8,N
1499285895.1,286047097.1,N
1499285915.8,286047097.0,N
1499285935.7,286047097.1,N
1499285955.5,286047096.5,N
1499285975.3,286047096.5,N
1499285995.2,286047098.3,N
1499286015.9,286047099.9,N
1499286035.7,286047100.3,N
1499286055.6,286047098.3,N
1499286075.4,286047097.9,N
1499286095.2,286047097.8,N
1499286115.1,286047097.7,N
1499286116.0,286047097.7,N
1499286135.8,286047101.9,N
1499286155.6,286047098.5,N
1499286175.5,286047097.3,N
1499286195.3,286047099.4,N
1499286215.1,286047099.9,N
1499286235.9,286047097.7,N
1499286255.7,286047099.5,N
1499286275.5,286047103.1,N
1499286295.4,286047103.5,Y
1499286315.2,286047064.1,N
1499286335.0,286047064.8,N
1499286335.9,286047064.8,N
1499286355.7,286047062.3,N
1499286375.6,286047062.8,N
1499286395.4,286047063.3,N
1499286415.2,286047062.2,N
1499286435.1,286047063.6,N
1499286436.0,286047063.6,N
1499286455.8,286047060.9,N
1499286475.6,286047060.5,N
1499286495.5,286047065.0,N
1499286515.3,286047064.2,N
1499286535.1,286047066.7,N
1499286555.9,286047065.0,N
1499286575.7,286047064.8,N
1499286595.5,286047066.6,N
1499286615.4,286047065.5,N
1499286635.2,286047067.8,N
1499286655.0,286047067.9,N
1499286655.9,286047067.9,N
1499286675.8,286047068.1,N
1499286695.6,286047069.3,N
1499286715.4,286047067.4,N
1499286735.3,286047071.6,N
1499286755.1,286047071.4,N
1499286756.0,286047071.4,N
1499286775.8,286047068.7,N
1499286795.6,286047069.7,N
1499286815.5,286047069.8,N
1499286835.3,286047066.9,N
1499286855.1,286047067.0,N
1499286875.9,286047068.8,N
1499286895.7,286047068.7,N
1499286915.5,286047071.0,N
1499286935.4,286047068.7,N
1499286955.2,286047069.0,N
1499286975.0,286047070.9,N
1499286975.9,286047070.9,N
1499286995.8,286047071.5,N
1499287015.6,286047067.4,N
1499287035.4,286047069.1,N
1499287055.3,286047070.3,N
1499287075.1,286047071.5,N
1499287076.0,286047071.5,N
1499287095.8,286047070.4,N
1499287115.7,286047070.5,N
1499287135.5,286047071.9,N
1499287155.3,286047072.2,N
1499287175.1,286047073.2,N
1499287195.9,286047071.3,N
1499287215.7,286047070.4,N
1499287235.5,286047072.5,N
1499287255.4,286047071.7,N
1499287275.2,286047073.7,N
1499287295.0,286047075.0,N
1499287295.9,286047075.0,N
1499287315.8,286047076.0,N
1499287335.6,286047076.3,N
1499287355.4,286047074.1,N
1499287375.3,286047074.1,N
1499287395.1,286047074.5,N
1499287396.0,286047074.5,N
1499287415.8,286047074.0,N
1499287435.7,286047073.6,N
1499287455.5,286047077.3,N
1499287475.3,286047077.5,N
1499287495.1,286047074.9,N
1499287515.9,286047077.6,N
1499287535.7,286047077.5,N
1499287555.5,286047075.3,N
1499287575.4,286047077.5,N
1499287595.2,286047073.5,N
1499287615.0,286047076.0,N
1499287615.9,286047076.0,N
1499287635.8,286047076.3,N
1499287655.6,286047076.0,N
1499287675.4,286047075.6,N
1499287695.3,286047078.0,N
1499287715.1,286047079.1,N
1499287716.0,286047079.1,N
1499287735.8,286047076.6,N
1499287755.7,286047077.1,N
1499287775.5,286047079.6,N
1499287795.3,286047078.4,N
1499287815.2,286047078.9,N
1499287835.9,286047079.1,N
1499287855.7,286047080.7,N
1499287875.5,286047080.9,N
1499287895.4,286047079.1,N
1499287915.2,286047080.9,N
1499287935.0,286047081.0,N
1499287935.9,286047081.0,N
1499287955.8,286047081.0,N
1499287975.6,286047080.2,N
1499287995.4,286047081.9,N
1499288015.3,286047083.6,N
1499288035.1,286047085.6,N
1499288055.8,286047082.1,N
1499288075.7,286047082.7,N
1499288095.5,286047081.5,N
1499288115.3,286047081.7,N
1499288135.2,286047081.7,N
1499288155.9,286047083.7,N
1499288175.7,286047085.5,N
1499288195.6,286047086.0,N
1499288215.4,286047085.4,N
1499288235.2,286047083.3,N
1499288255.0,286047085.5,N
1499288255.9,286047085.5,N
1499288275.8,286047085.2,N
1499288295.6,286047084.5,N
1499288315.4,286047085.7,N
1499288335.3,286047084.6,N
1499288355.1,286047087.4,N
1499288375.8,286047085.1,N
1499288395.7,286047087.5,N
